Weather History for Quincy, IL

Change the Weather History Date:

Sunday, December 15, 2013

  Actual Average Record
Temperature  
Mean Temperature 19 °F 30 °F  
Max Temperature 24 °F 37 °F 70 °F (1948)
Min Temperature 14 °F 22 °F -14 °F (1951)
Degree Days  
Heating Degree Days 46 35  
Month to date heating degree days 585 496  
Since 1 July heating degree days 1718 1596  
Cooling Degree Days 0 0  
Month to date cooling degree days 0 0  
Year to date cooling degree days 1242 1094  
Moisture  
Dew Point 15 °F    
Average Humidity 81    
Maximum Humidity 88    
Minimum Humidity 74    
Precipitation  
Precipitation 0.00 in 0.07 in 1.99 in (1992)
Month to date precipitation 0.79 1.23  
Year to date precipitation 35.38 36.31  
Sea Level Pressure  
Sea Level Pressure 30.13 in    
Wind  
Wind Speed 6 mph (West)    
Max Wind Speed 15 mph    
Max Gust Speed 19 mph    
Visibility 6 miles    
Events      
T = Trace of Precipitation, MM = Missing Value Source: NWS Daily Summary

Daily Weather History Graph

Daily Weather History Graph

Search for Another Location

Airport:

Trip Planner

Search our weather history database for the weather conditions in past years. The results will help you decide how hot, cold, wet, or windy it might be!

Date:

Astronomy

Dec. 15, 2013 Rise Set
Actual Time 7:19 AM CST 4:40 PM CST
Civil Twilight 6:48 AM CST 5:11 PM CST
Nautical Twilight 6:14 AM CST 5:45 PM CST
Astronomical Twilight 5:42 AM CST 6:18 PM CST
Moon 3:45 PM CST (12/15) 5:36 AM CST (12/15)
Length of Visible Light 10h 22m
Length of Day
9h 21m
Waxing Gibbous, 98% of the Moon is Illuminated
Dec 15
Waxing Gibbous
Dec 17
Full
Dec 25
Last Quarter
Jan 1
New
Jan 7
First Quarter

Hourly Weather History & Observations

Time (CST) Temp. Windchill Dew Point Humidity Pressure Visibility Wind Dir Wind Speed Gust Speed Precip Events Conditions
12:11 AM 19.0 °F 5.0 °F 14.0 °F 81% 30.13 in 7.0 mi WNW 15.0 mph - N/A   Scattered Clouds
12:54 AM 17.1 °F 5.8 °F 12.9 °F 84% 30.17 in 7.0 mi West 9.2 mph - N/A   Clear
1:54 AM 16.0 °F 5.3 °F 10.9 °F 81% 30.16 in 8.0 mi West 8.1 mph - N/A   Clear
2:54 AM 15.1 °F 3.3 °F 10.9 °F 84% 30.18 in 7.0 mi West 9.2 mph - N/A   Partly Cloudy
3:12 AM 16.0 °F 5.3 °F 12.0 °F 84% 30.14 in 7.0 mi West 8.1 mph - N/A   Mostly Cloudy
3:38 AM 17.1 °F 5.0 °F 12.0 °F 81% 30.13 in 7.0 mi West 10.4 mph - N/A   Overcast
3:54 AM 17.1 °F 5.0 °F 12.0 °F 81% 30.15 in 7.0 mi West 10.4 mph - N/A   Overcast
4:43 AM 15.1 °F 3.3 °F 10.9 °F 84% 30.13 in 7.0 mi West 9.2 mph - N/A   Scattered Clouds
4:54 AM 15.1 °F 4.2 °F 10.9 °F 84% 30.16 in 7.0 mi West 8.1 mph - N/A   Scattered Clouds
5:44 AM 15.1 °F 3.3 °F 10.9 °F 84% 30.13 in 7.0 mi WSW 9.2 mph - N/A   Mostly Cloudy
5:54 AM 15.1 °F 4.2 °F 10.9 °F 84% 30.17 in 7.0 mi West 8.1 mph - N/A   Overcast
6:02 AM 15.1 °F 4.2 °F 10.9 °F 84% 30.13 in 7.0 mi West 8.1 mph - N/A   Overcast
6:54 AM 16.0 °F 5.3 °F 12.0 °F 84% 30.18 in 7.0 mi West 8.1 mph - N/A   Overcast
7:54 AM 17.1 °F 7.6 °F 12.9 °F 84% 30.16 in 5.0 mi WSW 6.9 mph - N/A   Overcast
8:54 AM 17.1 °F 10.0 °F 12.9 °F 84% 30.17 in 5.0 mi West 4.6 mph - N/A   Overcast
9:54 AM 19.0 °F 10.0 °F 14.0 °F 81% 30.19 in 5.0 mi West 6.9 mph - N/A   Haze
10:24 AM 19.0 °F 11.1 °F 14.0 °F 81% 30.15 in 5.0 mi West 5.8 mph - N/A   Haze
10:54 AM 19.9 °F 12.1 °F 15.1 °F 81% 30.18 in 5.0 mi West 5.8 mph - N/A   Haze
11:09 AM 19.9 °F 11.1 °F 15.1 °F 81% 30.15 in 5.0 mi WNW 6.9 mph - N/A   Haze
11:54 AM 21.0 °F 12.4 °F 17.1 °F 85% 30.13 in 6.0 mi SSW 6.9 mph - N/A   Scattered Clouds
12:54 PM 21.9 °F - 17.1 °F 82% 30.12 in 6.0 mi Calm Calm - N/A   Haze
1:54 PM 23.0 °F 15.8 °F 17.1 °F 78% 30.09 in 6.0 mi SE 5.8 mph - N/A   Haze
2:54 PM 24.1 °F 19.7 °F 18.0 °F 77% 30.12 in 5.0 mi SSW 3.5 mph - N/A   Haze
3:54 PM 24.1 °F 19.7 °F 18.0 °F 77% 30.11 in 5.0 mi South 3.5 mph - N/A   Haze
4:54 PM 24.1 °F - 19.0 °F 81% 30.11 in 5.0 mi Calm Calm - N/A   Haze
5:54 PM 23.0 °F - 19.0 °F 85% 30.10 in 5.0 mi Calm Calm - N/A   Overcast
6:27 PM 23.0 °F 17.0 °F 19.0 °F 85% 30.06 in 5.0 mi East 4.6 mph - N/A   Overcast
6:54 PM 23.0 °F 15.8 °F 19.0 °F 85% 30.09 in 5.0 mi ESE 5.8 mph - N/A   Overcast
7:54 PM 24.1 °F 19.7 °F 19.9 °F 84% 30.11 in 5.0 mi East 3.5 mph - N/A   Overcast
8:54 PM 24.1 °F 18.2 °F 21.0 °F 88% 30.11 in 4.0 mi ENE 4.6 mph - N/A   Overcast
9:54 PM 24.1 °F 15.2 °F 19.9 °F 84% 30.09 in 5.0 mi ENE 8.1 mph - N/A   Overcast
10:54 PM 23.0 °F 12.4 °F 19.0 °F 85% 30.09 in 6.0 mi ENE 10.4 mph - N/A   Overcast
11:54 PM 21.9 °F 13.4 °F 19.0 °F 89% 30.06 in 5.0 mi ENE 6.9 mph - N/A   Mostly Cloudy